Aérodrome :
LOGIN :

S'inscrire | Disclaimer

   EN    FR    IT 

 










Légende :    VFR   VFR Marginal   IFR   IFR Intensif   IFR Très Intensif
Visi : 
Plafond : 
>= 8 km
>= 3000ft
5 à 8 km
1000 à 3000 ft
1500m à 5 km
500 à 1000 ft
800 à 1500m
200 à 500 ft
< 800m
< 200 ft
Symboles :   Orages  Brouillard  Fortes neiges  Fortes précipitations  Vent > 20 kt
SIGMETs :   Divers  Orages  Givrage  Turbulence  Onde Orograph.  Cendres Volcan.







- Altitude de l'aérodrome : 1036 ft
- Code IATA : ERF


EDDE - Erfurt

DERNIER METAR :
  • 190750Z VRB03KT CAVOK 20/09 Q1019 NOSIG

METARs EXPIRÉS :
  • 190720Z 35005KT 320V070 CAVOK 19/09 Q1019 NOSIG
  • 190650Z 36005KT 320V080 CAVOK 18/08 Q1019 NOSIG
  • 190620Z 25003KT 210V310 CAVOK 17/09 Q1019 NOSIG
  • 190550Z 24004KT 210V290 CAVOK 16/10 Q1019 NOSIG
  • 190520Z 20003KT CAVOK 14/10 Q1019 NOSIG

TAF TAF EDDE
Valide du 19 à 06h jusqu'au 20 à 06h UTC


190500Z 1906/2006 23005KT CAVOK
BECMG 1906/1909 35005KT
BECMG 1918/1921 VRB03KT
Pas de NOTAMs connus pour ce terrain.



MET'MAP, la Météo Aéronautique d'un coup d'oeil ! - Copyright ORBIFLY Décembre 2007 - Disclaimer

ORBIFLY MET'MAP TEAM :

Programmation & Développement : Alexandra Zaïnal
Conception & Développement : Baudouin d'Aumeries
Co-Programmation & Développement : Marc-Olivier Méhu
Soutien technique & logistique : Manuel Goepfert

Contact : metmap@orbifly.com




SOURCES & CREDITS :

   NOAA